This demonstration page uses our WeatherBlox Daily Observations layout. Learn more.

Left ArrowRight Arrow

Hourly Observations for May 28, 2017

Temp ( °F °C ) Dew Point ( °F °C ) Humidity (%) Winds ( mph kmh ) Pressure ( in mb ) Visibility ( mi km ) Precip ( " mm )
12:14 am 00:14 Mostly Cloudy 65 18.3 63 17.2 93 93 S 14 22 29.80 1009 10 16 0.00 0.00
12:52 am 00:52 Clear 65 18.3 63 17.2 93 93 WSW 6 9 29.79 1009 10 16 0.00 0.00
1:52 am 01:52 Mostly Clear 65 18.3 63 17.2 93 93 NW 12 19 29.75 1007 10 16 0.00 0.00
2:04 am 02:04 Mostly Cloudy 65 18.3 64 17.8 97 97 NW 15 24 29.77 1008 9 14 0.00 0.00
2:33 am 02:33 Partly Cloudy 65 18.3 63 17.2 93 93 NNW 13 20 29.77 1008 10 16 0.00 0.00
2:52 am 02:52 Mostly Cloudy 64 17.8 63 17.2 96 96 N 9 15 29.76 1008 10 16 0.00 0.00
3:07 am 03:07 Cloudy 64 17.8 63 17.2 96 96 NNW 8 13 29.77 1008 10 16 0.00 0.00
3:52 am 03:52 Cloudy 64 17.8 63 17.2 96 96 NW 7 11 29.80 1009 10 16 0.00 0.00
4:02 am 04:02 Cloudy 64 17.8 63 17.2 96 96 NW 10 17 29.80 1009 10 16 0.00 0.00
4:47 am 04:47 Cloudy 63 17 63 17 100 100 NNW 9 15 29.80 1009 10 16 0.00 0.00
4:52 am 04:52 Cloudy 63 17.2 62 16.7 97 97 NNW 10 17 29.77 1008 10 16 0.00 0.00
5:09 am 05:09 Mostly Cloudy 63 17.2 61 16.1 93 93 N 9 15 29.77 1008 10 16 0.00 0.00
5:25 am 05:25 Partly Cloudy 63 17.2 61 16.1 93 93 NNE 8 13 29.77 1008 10 16 0.00 0.00
5:52 am 05:52 Partly Cloudy 62 16.7 61 16.1 96 96 N 3 6 29.82 1010 10 16 0.00 0.00
6:05 am 06:05 Mostly Cloudy 62 16.7 61 16.1 96 96 NNW 3 6 29.83 1010 10 16 0.00 0.00
6:52 am 06:52 Cloudy 63 17.2 61 16.1 93 93 NW 3 6 29.88 1012 10 16 0.00 0.00
7:28 am 07:28 Cloudy 64 17.8 62 16.7 93 93 NW 3 6 29.88 1012 10 16 0.00 0.00
7:52 am 07:52 Mostly Cloudy 64 17.8 62 16.7 93 93 Calm 29.89 1012 10 16 0.00 0.00
8:13 am 08:13 Mostly Cloudy 65 18.3 62 16.7 90 90 NNW 3 6 29.88 1012 10 16 0.00 0.00
8:50 am 08:50 Cloudy 64 18 63 17 94 94 VRB 3 6 29.91 1013 10 16 0.00 0.00
8:52 am 08:52 Cloudy 65 18.3 62 16.7 90 90 VRB 5 7 29.91 1013 10 16 0.00 0.00
9:49 am 09:49 Cloudy 68 20 61 16 78 78 NW 9 15 29.91 1013 10 16 0.00 0.00
9:52 am 09:52 Cloudy 67 19.4 61 16.1 81 81 NW 8 13 29.93 1013 10 16 0.00 0.00
10:29 am 10:29 Partly Cloudy 68 20 61 16.1 78 78 NNW 7 11 29.91 1013 10 16 0.00 0.00
10:47 am 10:47 Mostly Cloudy 68 20 61 16 78 78 NW 8 13 29.94 1014 10 16 0.00 0.00
10:52 am 10:52 Partly Cloudy 70 21.1 61 16.1 73 73 WNW 7 11 29.93 1014 10 16 0.00 0.00
11:03 am 11:03 Mostly Cloudy 69 20.6 61 16.1 76 76 WNW 7 11 29.94 1014 10 16 0.00 0.00
11:14 am 11:14 Mostly Sunny 70 21.1 60 15.6 71 71 NW 9 15 29.94 1014 10 16 0.00 0.00
11:52 am 11:52 Mostly Sunny 72 22.2 61 16.1 68 68 NW 13 20 29.94 1014 10 16 0.00 0.00
12:52 pm 12:52 Sunny 74 23.3 60 15.6 62 62 NW 9 15 29.94 1014 10 16 0.00 0.00
1:52 pm 13:52 Mostly Sunny 76 24.4 57 13.9 52 52 NW 12 19 29.94 1014 10 16 0.00 0.00
2:52 pm 14:52 Partly Cloudy 76 24.4 58 14.4 54 54 NW 12 19 29.94 1014 10 16 0.00 0.00
3:52 pm 15:52 Partly Cloudy 78 25.6 57 13.9 48 48 NNW 12 19 29.94 1014 10 16 0.00 0.00
4:52 pm 16:52 Mostly Sunny 77 25 55 12.8 47 47 WNW 12 19 29.94 1014 10 16 0.00 0.00
5:52 pm 17:52 Sunny 77 25 53 11.7 43 43 NW 13 20 29.93 1014 10 16 0.00 0.00
6:52 pm 18:52 Sunny 76 24.4 54 12.2 47 47 NW 8 13 29.91 1013 10 16 0.00 0.00
7:52 pm 19:52 Sunny 75 23.9 54 12.2 48 48 Calm 29.90 1013 10 16 0.00 0.00
8:52 pm 20:52 Clear 66 18.9 58 14.4 75 75 S 5 7 29.93 1013 10 16 0.00 0.00
9:52 pm 21:52 Clear 64 17.8 56 13.3 75 75 S 8 13 29.94 1014 10 16 0.00 0.00
10:52 pm 22:52 Clear 63 17.2 56 13.3 78 78 SSW 6 9 29.95 1014 10 16 0.00 0.00
11:52 pm 23:52 Clear 61 16.1 56 13.3 84 84 SW 7 11 29.96 1014 10 16 0.00 0.00

Powered by AerisWeather